Location: Fond Mahaut
(18.0707°N, 63.0465°W)
Time: 14:39:12
(UTC+00:00)

Meteor 2-4 Rocket - Pass Details

Date: 08 December 2019
Orbit: 798 x 909 km, 81.2° (Epoch: 24 January)

Event Time Altitude Azimuth Distance (km) Brightness Sun altitude
Rises 22:58:23 0° 178° (S) 3,520 7.1 -19.0°
Reaches altitude 10° 23:00:52 10° 176° (S) 2,584 6.4 -19.6°
Maximum altitude 23:06:43 67° 94° (E) 979 3.7 -20.9°
Enters shadow 23:10:23 24° 18° (NNE) 1,788 5.1 -21.7°
